Regional Weather Roundup
Issued by NWS

Home | Current Version | Previous Version | Graphics & Text | Print | Product List | Glossary On
Versions: 1 2 3 4 5 6 7 8 9 10 11 12 13 14 15 16 17 18 19 20 21 22 23 24 25 26 27 28 29 30 31 32 33 34 35 36 37 38 39 40 41 42 43 44 45 46 47 48 49 50
000
ASUS43 KDTX 291810
RWRMI
MICHIGAN HOURLY REGIONAL WEATHER ROUNDUP
NATIONAL WEATHER SERVICE DETROIT/PONTIAC MI
200 PM EDT FRI AUG 29 2014

NOTE: "FAIR" INDICATES FEW OR NO CLOUDS BELOW 12,000 FEET WITH NO
SIGNIFICANT WEATHER AND/OR OBSTRUCTION TO VISIBILITY.

MIZ047>049-052>055-059>063-066>070-074>076-081>083-291900-
SOUTHEAST LOWER MICHIGAN

CITY           SKY/WX    TMP DP  RH WIND       PRES   REMARKS
ADRIAN         PTSUNNY   74  60  61 SE6       30.11F
6HR MIN TEMP:  59; 6HR MAX TEMP:  74;

ALMA           CLOUDY    70  56  61 S8G17     30.06F
ANN ARBOR      CLOUDY    73  56  54 SE9       30.10F
BAD AXE        CLOUDY    71  59  65 S13G18    30.10F
6HR MIN TEMP:  57; 6HR MAX TEMP:  73;

DETROIT CITY   PTSUNNY   74  55  51 SE9       30.12F
6HR MIN TEMP:  66; 6HR MAX TEMP:  74;

DETROIT        CLOUDY    71  56  58 E6        30.12F
6HR MIN TEMP:  64; 6HR MAX TEMP:  71;

FLINT          PTSUNNY   75  58  55 S12       30.09F
6HR MIN TEMP:  63; 6HR MAX TEMP:  76;

GROSSE ILE     CLOUDY    72  59  64 SE6       30.11S
HILLSDALE      PTSUNNY   77  60  56 SE6       30.09F
6HR MIN TEMP:  61; 6HR MAX TEMP:  77;

HOWELL         CLOUDY    71  55  58 SE14      30.10S

CITY           SKY/WX    TMP DP  RH WIND       PRES   REMARKS
JACKSON        PTSUNNY   75  60  59 SE10      30.08F
6HR MIN TEMP:  62; 6HR MAX TEMP:  75;

LAMBERTVILLE   PTSUNNY   77  61  57 SE5       30.10F
LANSING        CLOUDY    73  59  61 S17       30.07F
6HR MIN TEMP:  62; 6HR MAX TEMP:  73; 6HR PCP: TRACE;

LAPEER         NOT AVBL
MASON          CLOUDY    70  60  70 S8G16     30.08F
MONROE         CLOUDY    72  57  60 SE5       30.10F
MT. CLEMENS    PTSUNNY   71  56  57 SE12      30.11F
6HR MIN TEMP:  64; 6HR MAX TEMP:  73;

PONTIAC        PTSUNNY   73  54  51 SE13      30.10F
6HR MIN TEMP:  62; 6HR MAX TEMP:  73;

PORT HOPE        N/A     70  55  59 S8        30.09F
6HR MIN TEMP:  60; 6HR MAX TEMP:  70;

PORT HURON     MOSUNNY   72  57  60 S6        30.12F
TRI CITIES     CLOUDY    74  60  61 S10       30.07F
6HR MIN TEMP:  62; 6HR MAX TEMP:  75;

YPSILANTI      CLOUDY    74  57  55 SE5       30.12F
6HR MIN TEMP:  64; 6HR MAX TEMP:  77;

$$
MIZ043>046-050>051-056>058-064>065-071>073-077>080-291900-
SOUTHWEST LOWER MICHIGAN

CITY           SKY/WX    TMP DP  RH WIND       PRES   REMARKS
BATTLE CREEK   PTSUNNY   74  61  63 SE10      30.06F
6HR MIN TEMP:  63; 6HR MAX TEMP:  75; 6HR PCP: TRACE;

BENTON HARBOR  MOSUNNY   80  67  64 SE15      29.99F
6HR MIN TEMP:  65; 6HR MAX TEMP:  81; 6HR PCP: TRACE;

BIG RAPIDS     PTSUNNY   69  62  78 SE8G21    30.04S
6HR MIN TEMP:  61; 6HR MAX TEMP:  69; 6HR PCP:  0.03;

COLDWATER      PTSUNNY   80  63  55 S6        30.07F
6HR MIN TEMP:  63; 6HR MAX TEMP:  80;

HOLLAND        PTSUNNY   76  67  73 SE8       30.02F
6HR MIN TEMP:  65; 6HR MAX TEMP:  76; 6HR PCP:  0.04;

GRAND RAPIDS   CLOUDY    73  65  75 SE13      30.04F
6HR MIN TEMP:  63; 6HR MAX TEMP:  74; 6HR PCP: TRACE;

KALAMAZOO      PTSUNNY   78  63  59 S9        30.05F
6HR MIN TEMP:  63; 6HR MAX TEMP:  78; 6HR PCP: TRACE;

MARSHALL       PTSUNNY   73  61  65 SE9       30.07S
MUSKEGON       TSTM      68  64  87 SE9       30.01F FOG
6HR MIN TEMP:  64; 6HR MAX TEMP:  71; 6HR PCP:  0.60;

$$
MIZ016>042-291900-
NORTHERN LOWER MICHIGAN

CITY           SKY/WX    TMP DP  RH WIND       PRES   REMARKS
ALPENA         LGT RAIN  60  59  96 SE9       30.08F
6HR MIN TEMP:  57; 6HR MAX TEMP:  63; 6HR PCP:  0.29;

BEAVER ISLAND  CLOUDY    64  62  91 SE9G16    29.95F
6HR MIN TEMP:  59; 6HR MAX TEMP:  64;

CADILLAC       CLOUDY    70  63  77 S12       30.02F
CHARLEVOIX     CLOUDY    65  65  97 SE9       29.99F
6HR MIN TEMP:  59; 6HR MAX TEMP:  65;

FRANKFORT      MOCLDY    76  64  66 S9        29.95F
GAYLORD        CLOUDY    62  59  90 S15       30.03F
6HR MIN TEMP:  55; 6HR MAX TEMP:  62; 6HR PCP:  0.66;

GRAYLING       CLOUDY    65  64  95 SE8       30.04F
6HR MIN TEMP:  56; 6HR MAX TEMP:  65;

HARBOR SPRINGS CLOUDY    63  60  90 CALM      29.99F
HOUGHTON LAKE  PTSUNNY   67  60  78 S10       30.06F
6HR MIN TEMP:  57; 6HR MAX TEMP:  67; 6HR PCP:  0.06;

MANISTEE       MOSUNNY   75  64  69 S12G17    29.97F
OSCODA         CLOUDY    68  59  72 SE7       30.08S
PELLSTON       CLOUDY    62  60  93 SE10      30.00F
6HR MIN TEMP:  56; 6HR MAX TEMP:  62; 6HR PCP:  0.30;

TRAVERSE CITY  PTSUNNY   75  64  68 VRB3      29.96F
6HR MIN TEMP:  59; 6HR MAX TEMP:  75; 6HR PCP:  0.32;

$$
MIZ007>008-015-291900-
EASTERN UPPER MICHIGAN

CITY           SKY/WX    TMP DP  RH WIND       PRES   REMARKS
KINROSS        CLOUDY    61  61 100 SE18      30.01F
6HR MIN TEMP:  55; 6HR MAX TEMP:  61; 6HR PCP:  0.03;

MACKINAC ISLAN LGT RAIN  59  59  99 SE8G20    30.01F
6HR MIN TEMP:  57; 6HR MAX TEMP:  59;

NEWBERRY       CLOUDY    59  59  97 SE10      29.96F FOG
S. S. MARIE    LGT RAIN  60  57  89 SE14      30.01F
6HR MIN TEMP:  53; 6HR MAX TEMP:  62; 6HR PCP: TRACE;

$$
MIZ004>006-011>014-085-291900-
CENTRAL UPPER MICHIGAN

CITY           SKY/WX    TMP DP  RH WIND       PRES   REMARKS
MANISTIQUE     CLOUDY    62  61  97 SE9       29.94F
6HR MIN TEMP:  60; 6HR MAX TEMP:  62; 6HR PCP:  0.12;

ESCANABA       CLOUDY    64  63  94 S7        29.91F
6HR MIN TEMP:  61; 6HR MAX TEMP:  64; 6HR PCP:  0.25;

MENOMINEE      CLOUDY    72  66  83 S7        29.88F
6HR MIN TEMP:  61; 6HR MAX TEMP:  72; 6HR PCP:  0.02;

SAWYER-GWINN   RAIN      63  61  94 S10       29.92F
$$
MIZ001>003-009>011-084-291900-
WESTERN UPPER MICHIGAN

CITY           SKY/WX    TMP DP  RH WIND       PRES   REMARKS
IRON MOUNTAIN  CLOUDY    64  62  93 S6        29.89F FOG
6HR MIN TEMP:  58; 6HR MAX TEMP:  64; 6HR PCP: TRACE;

HOUGHTON       LGT RAIN  62  59  90 SE8       29.85F
6HR MIN TEMP:  60; 6HR MAX TEMP:  62; 6HR PCP:  0.05;

COPPER HARBOR    N/A     63  58  83 SW12G25   29.84F
6HR MIN TEMP:  60; 6HR MAX TEMP:  63;

$$

ABBREVIATIONS USED IN REMARKS
   TC - TEMPERATURE IN CELSIUS
  WCI - WIND CHILL INDEX
   HX - HEAT INDEX
  VSB - VISIBILITY



USA.gov is the U.S. government's official web portal to all federal, state and local government web resources and services.